Location: Karlsruhe
(49.0131°N, 8.3874°E)
Time: 11:49:14
(UTC+02:00)

ISS - Visible Passes

Search period start: 13 May 2021 00:00
Search period end: 23 May 2021 00:00
Orbit: 417 x 422 km, 51.6° (Epoch: 13 May)

Date Brightness Start Highest point End Pass type
(mag) Time Alt. Az. Time Alt. Az. Time Alt. Az.
13 May -3.0 02:05:02 47° NW 02:05:31 53° N 02:08:51 10° ENE visible
13 May -3.5 03:39:12 10° WNW 03:42:35 71° NNE 03:45:58 10° E visible
14 May -2.9 01:18:39 48° NE 01:18:39 48° NE 01:21:23 10° ENE visible
14 May -3.2 02:51:45 10° WNW 02:55:06 60° N 02:58:28 10° E visible
14 May -3.5 04:28:38 10° WNW 04:31:55 47° SSW 04:35:10 10° SE visible
14 May -3.1 22:50:48 10° SSW 22:53:52 33° SE 22:55:35 20° E visible
15 May -3.5 00:27:10 10° W 00:30:32 70° NNW 00:33:55 10° ENE visible
15 May -3.0 02:04:17 10° WNW 02:07:36 54° N 02:10:56 10° E visible
15 May -3.9 03:41:10 10° WNW 03:44:31 68° SSW 03:47:53 10° ESE visible
15 May -2.6 22:03:51 10° SSW 22:06:33 23° SE 22:09:18 10° E visible
15 May -3.8 23:39:42 10° WSW 23:43:05 88° NNW 23:46:29 10° ENE visible
16 May -2.9 01:16:47 10° WNW 01:20:05 52° N 01:23:25 10° ENE visible
16 May -3.9 02:53:42 10° WNW 02:57:06 89° NNE 03:00:29 10° ESE visible
16 May -2.5 04:30:54 10° W 04:33:35 22° SW 04:36:17 10° SSE visible
16 May -3.9 22:52:18 10° WSW 22:55:39 70° SSE 22:59:00 10° ENE visible
17 May -3.0 00:29:15 10° W 00:32:35 53° N 00:35:54 10° ENE visible
17 May -3.6 02:06:15 10° WNW 02:09:38 71° NNE 02:13:00 10° E visible
17 May -3.1 03:43:14 10° W 03:46:18 32° SW 03:49:21 10° SSE visible
17 May -3.6 22:05:00 10° SW 22:08:15 49° SSE 22:11:32 10° ENE visible
17 May -3.2 23:41:44 10° W 23:45:04 59° N 23:48:25 10° ENE visible
18 May -3.3 01:18:48 10° WNW 01:22:09 60° N 01:22:56 44° ENE visible
18 May -1.1 02:55:40 10° WNW 02:55:49 11° WNW 02:55:49 11° WNW visible
18 May -3.5 22:54:13 10° W 22:57:34 70° NNW 23:00:57 10° ENE visible
19 May -3.0 00:31:19 10° WNW 00:34:38 54° N 00:36:31 23° ENE visible
19 May -1.8 02:08:11 10° WNW 02:09:26 21° WNW 02:09:26 21° WNW visible
19 May -3.7 22:06:44 10° WSW 22:10:06 87° NNW 22:13:30 10° ENE visible
19 May -2.9 23:43:48 10° WNW 23:47:07 52° N 23:50:21 10° ENE visible
20 May -3.1 01:20:44 10° WNW 01:23:17 48° WNW 01:23:17 48° WNW visible
20 May -3.0 22:56:17 10° W 22:59:36 53° N 23:02:55 10° ENE visible
21 May -3.6 00:33:16 10° WNW 00:36:39 71° NNE 00:37:12 56° ENE visible
21 May -3.1 22:08:44 10° W 22:12:05 59° N 22:15:25 10° ENE visible
21 May -3.3 23:45:48 10° WNW 23:49:09 60° N 23:51:10 22° E visible
22 May -1.9 01:22:42 10° WNW 01:24:06 22° W 01:24:06 22° W visible
22 May -3.0 22:58:19 10° WNW 23:01:38 54° N 23:04:58 10° E visible
